Simultaneous Nadir Overpasses (SNOs) Predictions

Prediction of SNOs between AQUA and NPP Satellite Orbit:

Table of predicted SNOs for the next 14.0 days since TLE Epoch: 12/14/2012
Index Date (AQUA) Time (AQUA) Lat,Lon (AQUA) SZA (AQUA ) Date (NPP) Time (NPP) Lat,Lon (NPP) SZA (NPP ) Distance(km) Time Diff (sec)
1 12/15/2012 07:11:00 -76.64, 133.28 61.06 12/15/2012 07:10:04 -76.65, 133.33 61.02 1.40 56
2 12/15/2012 08:00:12 77.28, -56.70 118.23 12/15/2012 08:00:34 77.28, -56.78 118.23 2.13 22
3 12/17/2012 23:27:31 -76.74,-110.49 61.00 12/17/2012 23:26:57 -76.74,-110.53 60.97 0.93 34
4 12/18/2012 00:16:37 77.65, 60.68 117.97 12/18/2012 00:17:20 77.66, 60.76 117.91 2.05 43
5 12/20/2012 15:43:57 -77.10, 6.69 61.29 12/20/2012 15:43:44 -77.11, 6.72 61.29 0.95 13
6 12/20/2012 16:33:10 77.68, 176.66 118.04 12/20/2012 16:34:15 77.67, 176.59 118.00 1.82 65
7 12/23/2012 07:11:21 76.22, -48.15 119.75 12/23/2012 07:10:13 76.22, -48.25 119.84 2.91 68
8 12/23/2012 08:00:26 -77.30, 123.30 61.46 12/23/2012 08:00:34 -77.30, 123.33 61.47 0.97 8
9 12/25/2012 23:27:45 76.73, 69.42 119.19 12/25/2012 23:26:57 76.74, 69.47 119.22 1.27 48




NCC Satellite Simultaneous Nadir Overpasses (SNOs) Prediction Service
